TimeCST,TemperatureF,Dew PointF,Humidity,Sea Level PressureIn,VisibilityMPH,Wind Direction,Wind SpeedMPH,Gust SpeedMPH,PrecipitationIn,Events,Conditions,WindDirDegrees,DateUTC
12:55 AM,60.6,46.8,60,30.06,10.0,North,9.2,-,N/A,,Clear,10,2013-02-08 06:55:00
1:55 AM,58.6,45.0,60,30.07,10.0,NNE,9.2,-,N/A,,Clear,20,2013-02-08 07:55:00
2:55 AM,57.2,44.1,62,30.06,10.0,North,18.4,-,N/A,,Clear,350,2013-02-08 08:55:00
3:55 AM,55.8,43.0,62,30.07,10.0,North,16.1,21.9,N/A,,Clear,10,2013-02-08 09:55:00
4:55 AM,53.8,42.4,65,30.11,10.0,NNE,8.1,-,N/A,,Clear,30,2013-02-08 10:55:00
5:55 AM,52.2,40.8,65,30.14,10.0,NNE,6.9,-,N/A,,Clear,20,2013-02-08 11:55:00
6:55 AM,49.8,39.9,69,30.18,10.0,North,9.2,-,N/A,,Clear,10,2013-02-08 12:55:00
7:55 AM,50.2,40.1,68,30.20,10.0,North,6.9,-,N/A,,Clear,10,2013-02-08 13:55:00
8:55 AM,53.8,39.6,59,30.21,10.0,North,13.8,-,N/A,,Clear,10,2013-02-08 14:55:00
9:55 AM,58.3,35.8,43,30.21,10.0,NNE,15.0,-,N/A,,Clear,30,2013-02-08 15:55:00
10:55 AM,62.4,32.2,32,30.20,10.0,NE,15.0,-,N/A,,Clear,40,2013-02-08 16:55:00
11:55 AM,66.0,32.4,29,30.20,10.0,NNE,17.3,20.7,N/A,,Clear,20,2013-02-08 17:55:00
12:55 PM,68.2,31.6,26,30.16,10.0,NNE,12.7,21.9,N/A,,Clear,30,2013-02-08 18:55:00
1:55 PM,70.0,31.8,24,30.13,10.0,NNE,11.5,20.7,N/A,,Clear,30,2013-02-08 19:55:00
2:55 PM,70.3,28.2,21,30.12,10.0,NNE,11.5,-,N/A,,Clear,20,2013-02-08 20:55:00
3:55 PM,69.4,29.1,22,30.11,10.0,ENE,6.9,-,N/A,,Clear,60,2013-02-08 21:55:00
4:55 PM,67.1,30.4,25,30.10,10.0,NE,6.9,-,N/A,,Partly Cloudy,50,2013-02-08 22:55:00
5:55 PM,65.5,31.8,28,30.09,10.0,East,3.5,-,N/A,,Partly Cloudy,80,2013-02-08 23:55:00
6:55 PM,61.7,32.9,34,30.09,10.0,NE,3.5,-,N/A,,Mostly Cloudy,50,2013-02-09 00:55:00
7:55 PM,59.5,34.2,39,30.09,10.0,East,3.5,-,N/A,,Scattered Clouds,80,2013-02-09 01:55:00
8:55 PM,58.8,33.4,38,30.09,10.0,Calm,Calm,-,N/A,,Clear,0,2013-02-09 02:55:00
9:55 PM,56.1,36.1,47,30.10,10.0,ENE,3.5,-,N/A,,Mostly Cloudy,60,2013-02-09 03:55:00
10:55 PM,55.6,36.5,49,30.09,10.0,ENE,4.6,-,N/A,,Mostly Cloudy,60,2013-02-09 04:55:00
11:55 PM,54.9,36.9,51,30.08,10.0,NE,3.5,-,N/A,,Mostly Cloudy,50,2013-02-09 05:55:00